カタログに戻る

COSMOS 1475

運用中ナビゲーションLEO
NORAD 14173·PAYLOAD·🇷🇺 Russia

打ち上げ Jul 6, 1983 から Plesetsk Cosmodrome

Loading…

次のパス (今後24時間)

TLE

最新Source: Space-Track

元期: Sep 14, 2026, 15:42 UTC

1 14173U 83069C   26257.65457229 -.00000026  00000-0 -61234-4 0  9994
2 14173  74.0274  34.0848 0022283 307.0142  64.6608 12.54581890978213

AllMySatでCOSMOS 1475をリアルタイム追跡

Download on the App Store